Bowling Green, Kentucky, United States (42101)
Lat: 36.99N, Lon: 86.44W
Wx Zone: KYZ071
Local Info
Past Weather Observations for Today

NOTE: This archive is for the closest National Weather Service station to Bowling Green. Information may differ from the station used for current weather conditions.

Click here for Long-term Archive

Time Weather Temperature Dewpoint Humidity Pressure Winds Precip Visibility
09:15
Clear
77°F / 25°C 61°F / 16°C 57% 30.12 in
(1020 mb)
Calm - 10SM
08:55
Clear
75°F / 24°C 61°F / 16°C 61% 30.12 in
(1020 mb)
ESE 3.5 mph
(ESE 6 kph)
- 10SM
08:35
Clear
73°F / 23°C 61°F / 16°C 65% 30.12 in
(1020 mb)
ENE 4.6 mph
(ENE 7 kph)
- 10SM
08:15
Clear
73°F / 23°C 61°F / 16°C 65% 30.12 in
(1020 mb)
Calm - 10SM
07:55
Clear
72°F / 22°C 61°F / 16°C 69% 30.12 in
(1020 mb)
N 4.6 mph
(N 7 kph)
- 10SM
07:35
Clear
70°F / 21°C 61°F / 16°C 73% 30.12 in
(1020 mb)
Calm - 10SM
07:15
Clear
68°F / 20°C 61°F / 16°C 78% 30.12 in
(1020 mb)
Calm - 10SM
06:55
Clear
64°F / 18°C 59°F / 15°C 83% 30.12 in
(1020 mb)
Calm - 10SM
06:35
Clear
63°F / 17°C 59°F / 15°C 88% 30.12 in
(1020 mb)
Calm - 7SM
06:15
Clear
61°F / 16°C 61°F / 16°C 100% 30.12 in
(1020 mb)
Calm - 7SM
05:55
Clear
Fog And Mist
59°F / 15°C 59°F / 15°C 100% 30.12 in
(1020 mb)
Calm - 4SM
05:35
Clear
Fog And Mist
57°F / 14°C 57°F / 14°C 100% 30.12 in
(1020 mb)
Calm - 4SM
05:15
Clear
Fog And Mist
57°F / 14°C 57°F / 14°C 100% 30.12 in
(1020 mb)
Calm - 3SM
04:55
Clear
Fog And Mist
57°F / 14°C 57°F / 14°C 100% 30.12 in
(1020 mb)
Calm - 3SM
04:35
Clear
Fog And Mist
57°F / 14°C 57°F / 14°C 100% 30.12 in
(1020 mb)
Calm - 2 1/2SM
04:15
Clear
Fog And Mist
57°F / 14°C 57°F / 14°C 100% 30.09 in
(1019 mb)
Calm - 3SM
03:55
Clear
Fog And Mist
57°F / 14°C 57°F / 14°C 100% 30.09 in
(1019 mb)
Calm - 3SM
03:35
Clear
Fog And Mist
57°F / 14°C 57°F / 14°C 100% 30.09 in
(1019 mb)
Calm - 3SM
03:15
Clear
Fog And Mist
59°F / 15°C 59°F / 15°C 100% 30.09 in
(1019 mb)
Calm - 4SM
02:55
Clear
Fog And Mist
59°F / 15°C 59°F / 15°C 100% 30.09 in
(1019 mb)
Calm - 3SM
02:35
Clear
Fog And Mist
59°F / 15°C 59°F / 15°C 100% 30.09 in
(1019 mb)
Calm - 3SM
02:15
Clear
Fog And Mist
59°F / 15°C 59°F / 15°C 100% 30.09 in
(1019 mb)
Calm - 4SM
01:55
Clear
Fog And Mist
59°F / 15°C 59°F / 15°C 100% 30.09 in
(1019 mb)
Calm - 4SM
01:35
Clear
Fog And Mist
59°F / 15°C 59°F / 15°C 100% 30.09 in
(1019 mb)
Calm - 5SM
01:15
Clear
Fog And Mist
59°F / 15°C 59°F / 15°C 100% 30.09 in
(1019 mb)
Calm - 5SM
00:55
Clear
61°F / 16°C 59°F / 15°C 94% 30.09 in
(1019 mb)
Calm - 7SM
00:35
Clear
61°F / 16°C 61°F / 16°C 100% 30.09 in
(1019 mb)
Calm - 7SM
00:15
Clear
61°F / 16°C 61°F / 16°C 100% 30.09 in
(1019 mb)
Calm - 7SM
Time Weather Temperature Dewpoint Humidity Pressure Winds Precip Visibility


Weather for websites

WeatherForYou.com, LLC is not responsible for any damages or problems caused by this service. Current weather conditions are obtained from the closest station including government and personal stations which may have varying degrees of accuracy. Weather forecasts are derived from the NOAA NDFD. Like all things, this site belongs to Jesus Christ... He just trusts me to maintain it. If you have any questions or comments email webmaster@weatherforyou.com

Copyright © 2014, WeatherForYou.com LLC. All rights reserved.